Tracking 20092 objects as of 14-Dec-2019
HD Live streaming from Space Station
objects crossing your sky now

FENGYUN 1C DEB

Track FENGYUN 1C DEB now!
10-day predictions


NORAD ID: 30828
Int'l Code: 1999-025AVN
Perigee: 529.0 km
Apogee: 996.4 km
Inclination: 98.5 °
Period: 99.9 minutes
Semi major axis: 7133 km
RCS: 0.0024 m2 (small)
Launch date: May 10, 1999
Source: People's Republic of China (PRC)
Launch site: Taiyaun Space Center, China (TSC)

Note: This is SATELLITE DEBRIS
aabbcc
Your satellite tracking list
Your tracking list is empty




NASA's NSSDC Master Catalog

Two Line Element Set (TLE):
1 30828U 99025AVN 19346.74189295 +.00000487 +00000-0 +90079-4 0  9992
2 30828 098.5306 053.0256 0327576 044.7765 080.2218 14.40885180668705
Source of the keplerian elements: AFSPC